Powrót do katalogu

ARIANE 1 DEB

AktywnyGTO
NORAD 26684·DEBRIS·🇫🇷 France

Wystrzelony Jul 2, 1985 z Guiana Space Centre

Loading…

TLE

Starzejące sięSource: Space-Track

Epoka: Sep 14, 2026, 11:59 UTC

1 26684U 85056J   26257.49960971  .00000064  00000-0  25826-2 0  9992
2 26684   6.1526  29.0020 7074602 135.0926 351.5177  2.37180525239234

Śledź ARIANE 1 DEB w czasie rzeczywistym z AllMySat

Download on the App Store